Change the Weather History Date:

Friday, August 3, 2012

  Actual Average Record
Temperature  
Mean Temperature 78 °F 76 °F  
Max Temperature 88 °F 87 °F 100 °F (1963)
Min Temperature 68 °F 66 °F 50 °F (1976)
Degree Days  
Heating Degree Days 0 0  
Month to date heating degree days 0 0  
Since 1 June heating degree days 6 11  
Since 1 July heating degree days 0 0  
Cooling Degree Days 13 11  
Month to date cooling degree days 36 35  
Year to date cooling degree days 979 758  
Since 1 June cooling degree days 777 642  
Growing Degree Days 28 (Base 50)    
Moisture  
Dew Point 69 °F    
Average Humidity 73    
Maximum Humidity 90    
Minimum Humidity 55    
Precipitation  
Precipitation 0.00 in 0.12 in 1.42 in (1968)
Month to date precipitation 0.97 0.35  
Year to date precipitation 21.85 24.92  
Snow  
Snow 0.00 in - - ()
Month to date snowfall T  
Since 1 June snowfall T  
Since 1 July snowfall T  
Snow Depth 0.00 in    
Sea Level Pressure  
Sea Level Pressure 30.01 in    
Wind  
Wind Speed 6 mph (SE)    
Max Wind Speed 15 mph    
Max Gust Speed 18 mph    
Visibility 9 miles    
Events      
T = Trace of Precipitation, MM = Missing Value Source: NWS Daily Summary

Daily Weather History Graph

Daily Weather History Graph

Search for Another Location

Airport or City:

Trip Planner

Search our weather history database for the weather conditions in past years. The results will help you decide how hot, cold, wet, or windy it might be!

Date:

Astronomy

Aug. 03, 2012 Rise Set
Actual Time 6:26 AM EDT 8:25 PM EDT
Civil Twilight 5:57 AM EDT 8:53 PM EDT
Nautical Twilight 5:22 AM EDT 9:28 PM EDT
Astronomical Twilight 4:45 AM EDT 10:05 PM EDT
Moon 9:07 PM EDT (8/3) 8:04 AM EDT (8/3)
Length of Visible Light 14h 55m
Length of Day
13h 58m
Full, 97% of the Moon is Illuminated
Aug 3
Full
Aug 9
Last Quarter
Aug 17
New
Aug 24
First Quarter
Aug 31
Full

Hourly Weather History & Observations

Time (EDT) Temp. Heat Index Dew Point Humidity Pressure Visibility Wind Dir Wind Speed Gust Speed Precip Events Conditions
12:54 AM 75.9 °F - 68.0 °F 76% 29.95 in 10.0 mi Calm Calm - N/A   Clear
1:54 AM 75.9 °F - 68.0 °F 76% 29.94 in 10.0 mi Calm Calm - N/A   Clear
2:54 AM 72.0 °F - 68.0 °F 87% 29.95 in 9.0 mi Calm Calm - N/A   Clear
3:54 AM 73.0 °F - 68.0 °F 84% 29.96 in 10.0 mi North 3.5 mph - N/A   Clear
4:54 AM 70.0 °F - 66.9 °F 90% 29.97 in 7.0 mi Calm Calm - N/A   Clear
5:54 AM 69.1 °F - 66.0 °F 90% 29.96 in 6.0 mi Calm Calm - N/A   Clear
6:54 AM 69.1 °F - 66.9 °F 93% 29.99 in 5.0 mi Calm Calm - N/A   Clear
7:54 AM 73.0 °F - 68.0 °F 84% 30.00 in 6.0 mi Calm Calm - N/A   Haze
8:54 AM 75.0 °F - 68.0 °F 79% 30.01 in 7.0 mi Calm Calm - N/A   Clear
9:54 AM 77.0 °F - 70.0 °F 79% 30.02 in 8.0 mi East 4.6 mph - N/A   Scattered Clouds
10:01 AM 77.0 °F - 69.8 °F 78% 30.06 in 8.0 mi East 4.6 mph - N/A   Mostly Cloudy
10:54 AM 79.0 °F - 70.0 °F 74% 30.05 in 10.0 mi ESE 11.5 mph - N/A   Mostly Cloudy
11:54 AM 77.0 °F - 69.1 °F 76% 30.06 in 9.0 mi ESE 8.1 mph - N/A   Overcast
12:54 PM 81.0 °F 84.4 °F 70.0 °F 69% 30.05 in 10.0 mi Variable 5.8 mph - N/A   Scattered Clouds
1:18 PM 80.6 °F 83.9 °F 69.8 °F 70% 30.08 in 10.0 mi SE 8.1 mph - N/A   Mostly Cloudy
1:54 PM 82.9 °F 87.0 °F 70.0 °F 65% 30.04 in 10.0 mi SSE 12.7 mph - N/A   Mostly Cloudy
2:54 PM 84.0 °F 87.8 °F 69.1 °F 61% 30.02 in 10.0 mi SSE 4.6 mph - N/A   Partly Cloudy
3:54 PM 87.1 °F 92.0 °F 70.0 °F 57% 29.99 in 10.0 mi South 8.1 mph 18.4 mph N/A   Partly Cloudy
4:54 PM 88.0 °F 93.8 °F 71.1 °F 57% 29.99 in 10.0 mi SE 10.4 mph 16.1 mph N/A   Scattered Clouds
5:54 PM 84.9 °F 88.8 °F 69.1 °F 59% 29.99 in 10.0 mi SSE 8.1 mph - N/A   Scattered Clouds
6:54 PM 84.0 °F 88.4 °F 70.0 °F 63% 30.01 in 10.0 mi SE 9.2 mph - N/A   Scattered Clouds
7:54 PM 82.0 °F 85.9 °F 70.0 °F 67% 30.01 in 10.0 mi SE 8.1 mph - N/A   Scattered Clouds
8:54 PM 80.1 °F 82.3 °F 66.9 °F 64% 30.04 in 10.0 mi SE 10.4 mph - N/A   Scattered Clouds
9:54 PM 78.1 °F - 68.0 °F 71% 30.07 in 10.0 mi ESE 6.9 mph - N/A   Scattered Clouds
10:54 PM 78.1 °F - 68.0 °F 71% 30.08 in 10.0 mi ESE 8.1 mph - N/A   Partly Cloudy
11:54 PM 75.9 °F - 66.9 °F 74% 30.09 in 10.0 mi ESE 8.1 mph - N/A   Partly Cloudy